Time,TemperatureF,DewpointF,PressureIn,WindDirection,WindDirectionDegrees,WindSpeedMPH,WindSpeedGustMPH,Humidity,HourlyPrecipIn,Conditions,Clouds,dailyrainin,SoftwareType,DateUTC
2013-02-08 00:00:00,35.7,34.7,30.08,NE,46,3.0,4.0,96,0.14,,,1.09,Wunderground v.1.15,2013-02-08 05:00:00,
2013-02-08 00:02:00,35.6,34.6,30.08,North,9,3.0,4.0,96,0.13,,,0.01,Wunderground v.1.15,2013-02-08 05:02:00,
2013-02-08 00:05:00,35.6,34.6,30.07,NNW,328,3.0,4.0,96,0.14,,,0.02,Wunderground v.1.15,2013-02-08 05:05:00,
2013-02-08 00:11:00,35.7,34.7,30.07,ENE,61,3.0,3.0,96,0.15,,,0.03,Wunderground v.1.15,2013-02-08 05:11:00,
2013-02-08 00:13:00,35.7,34.7,30.07,NNE,12,3.0,3.0,96,0.14,,,0.03,Wunderground v.1.15,2013-02-08 05:13:00,
2013-02-08 00:18:00,35.6,34.6,30.07,NNE,20,3.0,6.0,96,0.10,,,0.04,Wunderground v.1.15,2013-02-08 05:18:00,
2013-02-08 00:24:00,35.5,34.5,30.06,NE,53,4.0,4.0,96,0.10,,,0.05,Wunderground v.1.15,2013-02-08 05:24:00,
2013-02-08 00:30:00,35.5,34.5,30.06,East,82,3.0,3.0,96,0.11,,,0.06,Wunderground v.1.15,2013-02-08 05:30:00,
2013-02-08 00:35:00,35.5,34.5,30.06,ENE,61,3.0,7.0,96,0.09,,,0.07,Wunderground v.1.15,2013-02-08 05:35:00,
2013-02-08 00:41:00,35.4,34.4,30.06,NNE,33,3.0,5.0,96,0.08,,,0.08,Wunderground v.1.15,2013-02-08 05:41:00,
2013-02-08 00:47:00,35.3,34.3,30.06,NE,44,3.0,5.0,96,0.09,,,0.08,Wunderground v.1.15,2013-02-08 05:47:00,
2013-02-08 00:53:00,35.4,34.4,30.06,SSW,207,2.0,4.0,96,0.09,,,0.09,Wunderground v.1.15,2013-02-08 05:53:00,
2013-02-08 00:58:00,35.4,34.4,30.05,NE,53,3.0,5.0,96,0.09,,,0.10,Wunderground v.1.15,2013-02-08 05:58:00,
2013-02-08 01:04:00,35.3,34.3,30.05,West,273,3.0,4.0,96,0.08,,,0.11,Wunderground v.1.15,2013-02-08 06:04:00,
2013-02-08 01:10:00,35.3,34.3,30.04,NNE,26,3.0,5.0,96,0.08,,,0.12,Wunderground v.1.15,2013-02-08 06:10:00,
2013-02-08 01:16:00,35.4,34.4,30.04,NE,55,3.0,5.0,96,0.08,,,0.12,Wunderground v.1.15,2013-02-08 06:16:00,
2013-02-08 01:21:00,35.4,34.4,30.03,ENE,77,3.0,4.0,96,0.08,,,0.13,Wunderground v.1.15,2013-02-08 06:21:00,
2013-02-08 01:27:00,35.3,34.3,30.03,WNW,287,3.0,4.0,96,0.06,,,0.13,Wunderground v.1.15,2013-02-08 06:27:00,
2013-02-08 01:33:00,35.4,34.4,30.03,NW,322,3.0,4.0,96,0.05,,,0.14,Wunderground v.1.15,2013-02-08 06:33:00,
2013-02-08 01:39:00,35.4,34.4,30.02,SE,125,3.0,3.0,96,0.05,,,0.14,Wunderground v.1.15,2013-02-08 06:39:00,
2013-02-08 01:45:00,35.3,34.3,30.02,NNE,15,3.0,4.0,96,0.04,,,0.14,Wunderground v.1.15,2013-02-08 06:45:00,
2013-02-08 01:51:00,35.3,34.3,30.02,NNW,328,3.0,4.0,96,0.00,,,0.15,Wunderground v.1.15,2013-02-08 06:51:00,
2013-02-08 01:57:00,35.4,34.4,30.01,WSW,253,3.0,6.0,96,0.06,,,0.16,Wunderground v.1.15,2013-02-08 06:57:00,
2013-02-08 02:02:00,35.4,34.4,30.01,NNE,18,2.0,4.0,96,0.06,,,0.16,Wunderground v.1.15,2013-02-08 07:02:00,
2013-02-08 02:08:00,35.3,34.3,30.01,NE,50,2.0,4.0,96,0.07,,,0.17,Wunderground v.1.15,2013-02-08 07:08:00,
2013-02-08 02:14:00,35.3,34.3,30.01,ENE,58,2.0,4.0,96,0.07,,,0.17,Wunderground v.1.15,2013-02-08 07:14:00,
2013-02-08 02:20:00,35.3,34.3,30.00,NE,53,3.0,4.0,96,0.06,,,0.18,Wunderground v.1.15,2013-02-08 07:20:00,
2013-02-08 02:25:00,35.3,34.3,30.00,NNE,23,3.0,5.0,96,0.06,,,0.18,Wunderground v.1.15,2013-02-08 07:25:00,
2013-02-08 02:30:00,35.2,34.2,30.00,NE,46,3.0,4.0,96,0.04,,,0.19,Wunderground v.1.15,2013-02-08 07:30:00,
2013-02-08 02:36:00,35.2,34.2,30.00,ENE,57,3.0,5.0,96,0.04,,,0.19,Wunderground v.1.15,2013-02-08 07:36:00,
2013-02-08 02:42:00,35.3,34.3,29.99,ENE,66,3.0,4.0,96,0.04,,,0.19,Wunderground v.1.15,2013-02-08 07:42:00,
2013-02-08 02:47:00,35.3,34.3,29.99,SSW,198,2.0,4.0,96,0.05,,,0.20,Wunderground v.1.15,2013-02-08 07:47:00,
2013-02-08 02:53:00,35.2,34.2,29.98,NNE,20,2.0,4.0,96,0.05,,,0.20,Wunderground v.1.15,2013-02-08 07:53:00,
2013-02-08 02:59:00,35.2,34.2,29.99,NE,46,3.0,3.0,96,0.04,,,0.20,Wunderground v.1.15,2013-02-08 07:59:00,
2013-02-08 03:05:00,35.2,34.2,29.98,NNE,33,2.0,4.0,96,0.04,,,0.21,Wunderground v.1.15,2013-02-08 08:05:00,
2013-02-08 03:10:00,35.2,34.2,29.98,ENE,78,2.0,4.0,96,0.04,,,0.21,Wunderground v.1.15,2013-02-08 08:10:00,
2013-02-08 03:16:00,35.1,34.1,29.97,NE,43,3.0,6.0,96,0.04,,,0.21,Wunderground v.1.15,2013-02-08 08:16:00,
2013-02-08 03:22:00,35.2,34.2,29.95,NE,35,3.0,6.0,96,0.00,,,0.21,Wunderground v.1.15,2013-02-08 08:22:00,
2013-02-08 03:28:00,35.2,34.2,29.96,NNE,22,4.0,6.0,96,0.00,,,0.22,Wunderground v.1.15,2013-02-08 08:28:00,
2013-02-08 03:33:00,35.2,34.2,29.96,WSW,256,2.0,4.0,96,0.00,,,0.22,Wunderground v.1.15,2013-02-08 08:33:00,
2013-02-08 03:39:00,35.1,34.1,29.96,ENE,75,2.0,6.0,96,0.00,,,0.22,Wunderground v.1.15,2013-02-08 08:39:00,
2013-02-08 03:45:00,35.2,34.2,29.95,NNE,29,3.0,6.0,96,0.00,,,0.22,Wunderground v.1.15,2013-02-08 08:45:00,
2013-02-08 03:51:00,35.2,34.4,29.95,East,98,2.0,4.0,97,0.00,,,0.22,Wunderground v.1.15,2013-02-08 08:51:00,
2013-02-08 03:57:00,35.1,34.1,29.95,NE,42,2.0,7.0,96,0.00,,,0.22,Wunderground v.1.15,2013-02-08 08:57:00,
2013-02-08 04:03:00,35.1,34.1,29.95,ENE,61,3.0,8.0,96,0.00,,,0.22,Wunderground v.1.15,2013-02-08 09:03:00,
2013-02-08 04:09:00,35.3,34.3,29.95,NE,36,4.0,4.0,96,0.00,,,0.22,Wunderground v.1.15,2013-02-08 09:09:00,
2013-02-08 04:14:00,35.3,34.3,29.95,ENE,63,4.0,5.0,96,0.00,,,0.22,Wunderground v.1.15,2013-02-08 09:14:00,
2013-02-08 04:20:00,35.4,34.4,29.95,NE,40,3.0,4.0,96,0.00,,,0.22,Wunderground v.1.15,2013-02-08 09:20:00,
2013-02-08 04:26:00,35.5,34.5,29.95,NE,56,3.0,4.0,96,0.00,,,0.22,Wunderground v.1.15,2013-02-08 09:26:00,
2013-02-08 04:32:00,35.7,34.7,29.95,North,351,3.0,4.0,96,0.00,,,0.22,Wunderground v.1.15,2013-02-08 09:32:00,
2013-02-08 04:37:00,35.6,34.6,29.95,North,353,2.0,4.0,96,0.00,,,0.22,Wunderground v.1.15,2013-02-08 09:37:00,
2013-02-08 04:43:00,35.5,34.5,29.95,NE,53,1.0,4.0,96,0.00,,,0.22,Wunderground v.1.15,2013-02-08 09:43:00,
2013-02-08 04:49:00,35.5,34.5,29.95,NNE,26,1.0,1.0,96,0.00,,,0.22,Wunderground v.1.15,2013-02-08 09:49:00,
2013-02-08 04:55:00,35.5,34.5,29.95,ENE,57,1.0,4.0,96,0.00,,,0.22,Wunderground v.1.15,2013-02-08 09:55:00,
2013-02-08 05:00:00,35.3,34.3,29.95,NW,309,2.0,4.0,96,0.00,,,0.22,Wunderground v.1.15,2013-02-08 10:00:00,
2013-02-08 05:06:00,35.3,34.3,29.95,SSW,211,2.0,4.0,96,0.00,,,0.22,Wunderground v.1.15,2013-02-08 10:06:00,
2013-02-08 05:12:00,35.4,34.4,29.95,WNW,288,1.0,4.0,96,0.00,,,0.22,Wunderground v.1.15,2013-02-08 10:12:00,
2013-02-08 05:18:00,35.3,34.3,29.95,NNE,30,1.0,4.0,96,0.00,,,0.22,Wunderground v.1.15,2013-02-08 10:18:00,
2013-02-08 05:23:00,35.3,34.3,29.94,NNE,30,2.0,4.0,96,0.00,,,0.22,Wunderground v.1.15,2013-02-08 10:23:00,
2013-02-08 05:29:00,35.5,34.7,29.94,ENE,75,2.0,2.0,97,0.00,,,0.22,Wunderground v.1.15,2013-02-08 10:29:00,
2013-02-08 05:35:00,35.7,34.9,29.94,East,79,2.0,6.0,97,0.00,,,0.22,Wunderground v.1.15,2013-02-08 10:35:00,
2013-02-08 05:41:00,35.7,34.7,29.94,NE,36,3.0,5.0,96,0.00,,,0.22,Wunderground v.1.15,2013-02-08 10:41:00,
2013-02-08 05:46:00,35.7,34.7,29.94,ENE,65,3.0,5.0,96,0.00,,,0.22,Wunderground v.1.15,2013-02-08 10:46:00,
2013-02-08 05:52:00,35.8,34.8,29.94,ENE,60,2.0,4.0,96,0.00,,,0.22,Wunderground v.1.15,2013-02-08 10:52:00,
2013-02-08 05:58:00,35.8,34.8,29.94,NE,49,2.0,4.0,96,0.00,,,0.22,Wunderground v.1.15,2013-02-08 10:58:00,
2013-02-08 06:04:00,35.8,34.8,29.94,NE,46,2.0,4.0,96,0.00,,,0.22,Wunderground v.1.15,2013-02-08 11:04:00,
2013-02-08 06:10:00,35.9,34.9,29.94,WSW,252,2.0,2.0,96,0.00,,,0.22,Wunderground v.1.15,2013-02-08 11:10:00,
2013-02-08 06:16:00,36.0,35.0,29.95,West,271,1.0,2.0,96,0.00,,,0.22,Wunderground v.1.15,2013-02-08 11:16:00,
2013-02-08 06:22:00,35.8,34.8,29.94,ENE,58,1.0,3.0,96,0.00,,,0.22,Wunderground v.1.15,2013-02-08 11:22:00,
2013-02-08 06:28:00,35.8,34.8,29.95,NNW,337,2.0,4.0,96,0.00,,,0.22,Wunderground v.1.15,2013-02-08 11:28:00,
2013-02-08 06:34:00,35.9,34.9,29.95,East,94,2.0,5.0,96,0.00,,,0.22,Wunderground v.1.15,2013-02-08 11:34:00,
2013-02-08 06:39:00,35.9,34.9,29.95,NNE,12,2.0,2.0,96,0.00,,,0.22,Wunderground v.1.15,2013-02-08 11:39:00,
2013-02-08 06:45:00,35.8,34.8,29.94,ENE,76,1.0,5.0,96,0.00,,,0.22,Wunderground v.1.15,2013-02-08 11:45:00,
2013-02-08 06:51:00,35.9,34.9,29.94,ENE,64,1.0,2.0,96,0.00,,,0.22,Wunderground v.1.15,2013-02-08 11:51:00,
2013-02-08 06:56:00,36.0,35.0,29.94,ENE,61,1.0,3.0,96,0.00,,,0.22,Wunderground v.1.15,2013-02-08 11:56:00,
2013-02-08 07:03:00,36.0,35.0,29.94,WSW,244,2.0,5.0,96,0.00,,,0.22,Wunderground v.1.15,2013-02-08 12:03:00,
2013-02-08 07:09:00,36.1,35.1,29.94,East,85,2.0,2.0,96,0.00,,,0.22,Wunderground v.1.15,2013-02-08 12:09:00,
2013-02-08 07:15:00,36.2,35.2,29.94,NNW,328,1.0,4.0,96,0.00,,,0.22,Wunderground v.1.15,2013-02-08 12:15:00,
2013-02-08 07:20:00,36.2,35.2,29.94,NNW,340,2.0,4.0,96,0.00,,,0.22,Wunderground v.1.15,2013-02-08 12:20:00,
2013-02-08 07:26:00,36.2,35.2,29.94,West,281,2.0,4.0,96,0.00,,,0.22,Wunderground v.1.15,2013-02-08 12:26:00,
2013-02-08 07:32:00,36.3,35.3,29.94,NE,37,2.0,4.0,96,0.00,,,0.22,Wunderground v.1.15,2013-02-08 12:32:00,
2013-02-08 07:37:00,36.4,35.4,29.94,North,5,3.0,4.0,96,0.00,,,0.22,Wunderground v.1.15,2013-02-08 12:37:00,
2013-02-08 07:43:00,36.4,35.4,29.94,WNW,291,2.0,4.0,96,0.00,,,0.22,Wunderground v.1.15,2013-02-08 12:43:00,
2013-02-08 07:49:00,36.5,35.5,29.94,East,99,1.0,4.0,96,0.00,,,0.22,Wunderground v.1.15,2013-02-08 12:49:00,
2013-02-08 07:54:00,36.6,35.6,29.95,ENE,65,1.0,4.0,96,0.00,,,0.22,Wunderground v.1.15,2013-02-08 12:54:00,
2013-02-08 08:00:00,36.8,35.8,29.94,NNE,26,2.0,4.0,96,0.00,,,0.22,Wunderground v.1.15,2013-02-08 13:00:00,
2013-02-08 08:06:00,36.9,35.6,29.94,North,5,2.0,4.0,95,0.00,,,0.22,Wunderground v.1.15,2013-02-08 13:06:00,
2013-02-08 08:12:00,37.1,35.8,29.94,NNE,23,1.0,4.0,95,0.00,,,0.22,Wunderground v.1.15,2013-02-08 13:12:00,
2013-02-08 08:17:00,37.1,35.8,29.94,WNW,300,1.0,4.0,95,0.00,,,0.22,Wunderground v.1.15,2013-02-08 13:17:00,
2013-02-08 08:24:00,37.1,35.8,29.94,WNW,291,1.0,4.0,95,0.00,,,0.22,Wunderground v.1.15,2013-02-08 13:24:00,
2013-02-08 08:30:00,37.2,35.9,29.94,North,4,1.0,1.0,95,0.00,,,0.22,Wunderground v.1.15,2013-02-08 13:30:00,
2013-02-08 08:36:00,37.4,36.1,29.94,NNW,345,1.0,4.0,95,0.00,,,0.22,Wunderground v.1.15,2013-02-08 13:36:00,
2013-02-08 08:41:00,37.6,36.3,29.94,North,8,0.0,4.0,95,0.00,,,0.22,Wunderground v.1.15,2013-02-08 13:41:00,
2013-02-08 08:47:00,37.7,36.4,29.95,North,349,0.0,4.0,95,0.00,,,0.22,Wunderground v.1.15,2013-02-08 13:47:00,
2013-02-08 08:53:00,38.0,36.7,29.95,West,278,1.0,4.0,95,0.00,,,0.22,Wunderground v.1.15,2013-02-08 13:53:00,
2013-02-08 08:59:00,38.3,37.0,29.94,North,6,1.0,1.0,95,0.00,,,0.22,Wunderground v.1.15,2013-02-08 13:59:00,
2013-02-08 09:05:00,38.4,36.8,29.95,WNW,287,1.0,4.0,94,0.00,,,0.22,Wunderground v.1.15,2013-02-08 14:05:00,
2013-02-08 09:11:00,38.6,37.3,29.95,West,276,1.0,4.0,95,0.00,,,0.22,Wunderground v.1.15,2013-02-08 14:11:00,
2013-02-08 09:17:00,39.0,37.4,29.95,ENE,70,1.0,4.0,94,0.00,,,0.22,Wunderground v.1.15,2013-02-08 14:17:00,
2013-02-08 09:23:00,39.2,37.6,29.95,WNW,283,1.0,4.0,94,0.00,,,0.22,Wunderground v.1.15,2013-02-08 14:23:00,
2013-02-08 09:29:00,39.4,37.5,29.94,East,86,1.0,4.0,93,0.00,,,0.22,Wunderground v.1.15,2013-02-08 14:29:00,
2013-02-08 09:35:00,39.7,37.8,29.94,NE,56,1.0,4.0,93,0.00,,,0.22,Wunderground v.1.15,2013-02-08 14:35:00,
2013-02-08 09:41:00,40.0,38.1,29.94,East,98,1.0,4.0,93,0.00,,,0.22,Wunderground v.1.15,2013-02-08 14:41:00,
2013-02-08 09:47:00,40.3,38.4,29.94,WNW,293,1.0,4.0,93,0.00,,,0.22,Wunderground v.1.15,2013-02-08 14:47:00,
2013-02-08 09:53:00,40.8,38.9,29.93,East,96,1.0,4.0,93,0.00,,,0.22,Wunderground v.1.15,2013-02-08 14:53:00,
2013-02-08 09:58:00,41.5,39.6,29.93,WNW,284,1.0,4.0,93,0.00,,,0.22,Wunderground v.1.15,2013-02-08 14:58:00,
2013-02-08 10:04:00,42.2,39.8,29.93,SW,236,1.0,4.0,91,0.00,,,0.22,Wunderground v.1.15,2013-02-08 15:04:00,
2013-02-08 10:10:00,42.6,40.2,29.93,WNW,290,1.0,4.0,91,0.00,,,0.22,Wunderground v.1.15,2013-02-08 15:10:00,
2013-02-08 10:16:00,43.3,40.3,29.93,West,276,1.0,4.0,89,0.00,,,0.22,Wunderground v.1.15,2013-02-08 15:16:00,
2013-02-08 10:22:00,43.4,40.1,29.93,WNW,284,1.0,4.0,88,0.00,,,0.22,Wunderground v.1.15,2013-02-08 15:22:00,
2013-02-08 10:27:00,43.5,40.2,29.93,NW,321,1.0,4.0,88,0.00,,,0.22,Wunderground v.1.15,2013-02-08 15:27:00,
2013-02-08 10:33:00,43.8,40.5,29.92,East,95,1.0,4.0,88,0.00,,,0.22,Wunderground v.1.15,2013-02-08 15:33:00,
2013-02-08 10:38:00,44.2,40.9,29.92,ENE,64,1.0,4.0,88,0.00,,,0.22,Wunderground v.1.15,2013-02-08 15:38:00,
2013-02-08 10:44:00,44.5,40.6,29.92,West,270,1.0,4.0,86,0.00,,,0.22,Wunderground v.1.15,2013-02-08 15:44:00,
2013-02-08 10:50:00,45.3,42.0,29.92,NNW,340,1.0,1.0,88,0.00,,,0.22,Wunderground v.1.15,2013-02-08 15:50:00,
2013-02-08 10:55:00,45.4,41.2,29.93,WSW,250,1.0,5.0,85,0.00,,,0.22,Wunderground v.1.15,2013-02-08 15:55:00,
2013-02-08 11:02:00,45.4,41.8,29.93,WSW,245,2.0,4.0,87,0.00,,,0.22,Wunderground v.1.15,2013-02-08 16:02:00,
2013-02-08 11:08:00,45.7,41.8,29.92,West,264,2.0,4.0,86,0.00,,,0.22,Wunderground v.1.15,2013-02-08 16:08:00,
2013-02-08 11:13:00,46.4,42.4,29.92,NW,316,2.0,4.0,86,0.00,,,0.22,Wunderground v.1.15,2013-02-08 16:13:00,
2013-02-08 11:18:00,46.6,42.3,29.92,WSW,242,2.0,4.0,85,0.00,,,0.22,Wunderground v.1.15,2013-02-08 16:18:00,
2013-02-08 11:24:00,46.9,42.3,29.92,West,264,2.0,4.0,84,0.00,,,0.22,Wunderground v.1.15,2013-02-08 16:24:00,
2013-02-08 11:30:00,46.5,41.9,29.91,North,1,2.0,4.0,84,0.00,,,0.22,Wunderground v.1.15,2013-02-08 16:30:00,
2013-02-08 11:36:00,46.4,41.8,29.91,North,5,2.0,4.0,84,0.00,,,0.22,Wunderground v.1.15,2013-02-08 16:36:00,
2013-02-08 11:41:00,46.3,41.7,29.91,NW,321,2.0,4.0,84,0.00,,,0.22,Wunderground v.1.15,2013-02-08 16:41:00,
2013-02-08 11:47:00,46.5,42.2,29.91,West,270,2.0,4.0,85,0.00,,,0.22,Wunderground v.1.15,2013-02-08 16:47:00,
2013-02-08 11:53:00,46.7,42.1,29.91,WNW,284,2.0,4.0,84,0.00,,,0.22,Wunderground v.1.15,2013-02-08 16:53:00,
2013-02-08 11:59:00,47.2,42.9,29.91,SW,224,2.0,4.0,85,0.00,,,0.22,Wunderground v.1.15,2013-02-08 16:59:00,
2013-02-08 12:05:00,47.9,43.0,29.90,WSW,249,2.0,7.0,83,0.00,,,0.22,Wunderground v.1.15,2013-02-08 17:05:00,
2013-02-08 12:10:00,48.4,42.8,29.90,NW,307,3.0,4.0,81,0.00,,,0.22,Wunderground v.1.15,2013-02-08 17:10:00,
2013-02-08 12:15:00,48.6,43.0,29.89,WNW,285,3.0,4.0,81,0.00,,,0.22,Wunderground v.1.15,2013-02-08 17:15:00,
2013-02-08 12:20:00,48.9,43.6,29.89,West,264,2.0,7.0,82,0.00,,,0.22,Wunderground v.1.15,2013-02-08 17:20:00,
2013-02-08 12:26:00,49.0,43.4,29.89,WNW,293,3.0,7.0,81,0.00,,,0.22,Wunderground v.1.15,2013-02-08 17:26:00,
2013-02-08 12:31:00,49.5,43.9,29.88,NW,316,3.0,5.0,81,0.00,,,0.22,Wunderground v.1.15,2013-02-08 17:31:00,
2013-02-08 12:37:00,50.3,44.0,29.89,WNW,284,3.0,5.0,79,0.00,,,0.22,Wunderground v.1.15,2013-02-08 17:37:00,
2013-02-08 12:43:00,49.9,43.6,29.88,NW,322,4.0,4.0,79,0.00,,,0.22,Wunderground v.1.15,2013-02-08 17:43:00,
2013-02-08 12:49:00,50.7,44.8,29.88,WNW,291,4.0,4.0,80,0.00,,,0.22,Wunderground v.1.15,2013-02-08 17:49:00,
2013-02-08 12:54:00,51.7,45.4,29.87,WNW,295,3.0,4.0,79,0.00,,,0.22,Wunderground v.1.15,2013-02-08 17:54:00,
2013-02-08 13:00:00,52.2,44.9,29.88,NW,316,3.0,8.0,76,0.00,,,0.22,Wunderground v.1.15,2013-02-08 18:00:00,
2013-02-08 13:06:00,52.2,44.9,29.88,WSW,244,5.0,10.0,76,0.00,,,0.22,Wunderground v.1.15,2013-02-08 18:06:00,
2013-02-08 13:12:00,51.8,44.5,29.87,West,263,6.0,8.0,76,0.00,,,0.22,Wunderground v.1.15,2013-02-08 18:12:00,
2013-02-08 13:18:00,52.3,45.3,29.87,WNW,283,4.0,8.0,77,0.00,,,0.22,Wunderground v.1.15,2013-02-08 18:18:00,
2013-02-08 13:24:00,52.6,44.9,29.87,West,269,3.0,6.0,75,0.00,,,0.22,Wunderground v.1.15,2013-02-08 18:24:00,
2013-02-08 13:30:00,52.9,45.2,29.87,West,277,4.0,4.0,75,0.00,,,0.22,Wunderground v.1.15,2013-02-08 18:30:00,
2013-02-08 13:35:00,52.6,44.9,29.87,SW,215,4.0,6.0,75,0.00,,,0.22,Wunderground v.1.15,2013-02-08 18:35:00,
2013-02-08 13:40:00,52.4,44.7,29.87,WSW,253,4.0,6.0,75,0.00,,,0.22,Wunderground v.1.15,2013-02-08 18:40:00,
2013-02-08 13:46:00,52.2,44.9,29.87,WSW,238,5.0,9.0,76,0.00,,,0.22,Wunderground v.1.15,2013-02-08 18:46:00,
2013-02-08 13:51:00,52.3,45.0,29.86,West,264,5.0,5.0,76,0.00,,,0.22,Wunderground v.1.15,2013-02-08 18:51:00,
2013-02-08 13:57:00,52.5,45.2,29.86,WNW,285,3.0,6.0,76,0.00,,,0.22,Wunderground v.1.15,2013-02-08 18:57:00,
2013-02-08 14:02:00,52.6,45.6,29.86,West,280,3.0,3.0,77,0.00,,,0.22,Wunderground v.1.15,2013-02-08 19:02:00,
2013-02-08 14:08:00,52.9,45.9,29.86,WNW,295,3.0,4.0,77,0.00,,,0.22,Wunderground v.1.15,2013-02-08 19:08:00,
2013-02-08 14:14:00,53.4,46.0,29.86,WSW,255,3.0,6.0,76,0.00,,,0.22,Wunderground v.1.15,2013-02-08 19:14:00,
2013-02-08 14:20:00,53.5,45.8,29.86,WNW,290,3.0,4.0,75,0.00,,,0.22,Wunderground v.1.15,2013-02-08 19:20:00,
2013-02-08 14:25:00,53.7,46.3,29.86,WNW,292,3.0,4.0,76,0.00,,,0.22,Wunderground v.1.15,2013-02-08 19:25:00,
2013-02-08 14:31:00,53.8,46.4,29.86,WSW,256,3.0,5.0,76,0.00,,,0.22,Wunderground v.1.15,2013-02-08 19:31:00,
2013-02-08 14:37:00,54.8,47.4,29.86,West,278,4.0,5.0,76,0.00,,,0.22,Wunderground v.1.15,2013-02-08 19:37:00,
2013-02-08 14:43:00,55.9,47.0,29.86,South,188,3.0,4.0,72,0.00,,,0.22,Wunderground v.1.15,2013-02-08 19:43:00,
2013-02-08 14:49:00,56.9,47.6,29.86,WNW,294,4.0,6.0,71,0.00,,,0.22,Wunderground v.1.15,2013-02-08 19:49:00,
2013-02-08 14:55:00,57.1,46.6,29.85,WSW,255,5.0,7.0,68,0.00,,,0.22,Wunderground v.1.15,2013-02-08 19:55:00,
2013-02-08 15:00:00,56.7,45.5,29.86,NNW,342,5.0,5.0,66,0.00,,,0.22,Wunderground v.1.15,2013-02-08 20:00:00,
2013-02-08 15:06:00,56.5,42.8,29.86,WNW,290,5.0,11.0,60,0.00,,,0.22,Wunderground v.1.15,2013-02-08 20:06:00,
2013-02-08 15:11:00,56.3,41.7,29.86,NW,307,5.0,9.0,58,0.00,,,0.22,Wunderground v.1.15,2013-02-08 20:11:00,
2013-02-08 15:17:00,56.6,41.5,29.86,NE,39,5.0,14.0,57,0.00,,,0.22,Wunderground v.1.15,2013-02-08 20:17:00,
2013-02-08 15:23:00,57.3,42.2,29.85,WNW,290,5.0,9.0,57,0.00,,,0.22,Wunderground v.1.15,2013-02-08 20:23:00,
2013-02-08 15:29:00,57.6,40.1,29.86,WSW,250,5.0,5.0,52,0.00,,,0.22,Wunderground v.1.15,2013-02-08 20:29:00,
2013-02-08 15:35:00,57.4,39.4,29.86,NW,318,6.0,7.0,51,0.00,,,0.22,Wunderground v.1.15,2013-02-08 20:35:00,
2013-02-08 15:40:00,57.4,39.9,29.86,WNW,302,5.0,5.0,52,0.00,,,0.22,Wunderground v.1.15,2013-02-08 20:40:00,
2013-02-08 15:46:00,57.2,39.2,29.86,West,279,4.0,10.0,51,0.00,,,0.22,Wunderground v.1.15,2013-02-08 20:46:00,
2013-02-08 15:52:00,57.0,38.5,29.86,NNE,19,4.0,8.0,50,0.00,,,0.22,Wunderground v.1.15,2013-02-08 20:52:00,
2013-02-08 15:58:00,56.6,39.2,29.86,WNW,295,5.0,13.0,52,0.00,,,0.22,Wunderground v.1.15,2013-02-08 20:58:00,
2013-02-08 16:03:00,56.5,37.0,29.86,WNW,292,7.0,14.0,48,0.00,,,0.22,Wunderground v.1.15,2013-02-08 21:03:00,
2013-02-08 16:09:00,56.7,37.2,29.86,ESE,111,7.0,7.0,48,0.00,,,0.22,Wunderground v.1.15,2013-02-08 21:09:00,
2013-02-08 16:15:00,56.8,37.8,29.86,WNW,284,5.0,7.0,49,0.00,,,0.22,Wunderground v.1.15,2013-02-08 21:15:00,
2013-02-08 16:21:00,57.0,38.0,29.86,WNW,302,4.0,6.0,49,0.00,,,0.22,Wunderground v.1.15,2013-02-08 21:21:00,
2013-02-08 16:26:00,57.1,37.6,29.86,West,275,4.0,6.0,48,0.00,,,0.22,Wunderground v.1.15,2013-02-08 21:26:00,
2013-02-08 16:32:00,57.0,37.0,29.87,NNW,328,4.0,8.0,47,0.00,,,0.22,Wunderground v.1.15,2013-02-08 21:32:00,
2013-02-08 16:38:00,57.1,36.5,29.87,WSW,257,5.0,5.0,46,0.00,,,0.22,Wunderground v.1.15,2013-02-08 21:38:00,
2013-02-08 16:43:00,57.4,37.9,29.87,NNW,334,4.0,5.0,48,0.00,,,0.22,Wunderground v.1.15,2013-02-08 21:43:00,
2013-02-08 16:49:00,57.6,38.0,29.87,WNW,295,3.0,6.0,48,0.00,,,0.22,Wunderground v.1.15,2013-02-08 21:49:00,
2013-02-08 16:55:00,57.5,36.9,29.88,SSE,160,3.0,3.0,46,0.00,,,0.22,Wunderground v.1.15,2013-02-08 21:55:00,
2013-02-08 17:00:00,57.4,35.6,29.88,WNW,288,3.0,4.0,44,0.00,,,0.22,Wunderground v.1.15,2013-02-08 22:00:00,
2013-02-08 17:07:00,56.8,35.7,29.88,NW,316,4.0,8.0,45,0.00,,,0.22,Wunderground v.1.15,2013-02-08 22:07:00,
2013-02-08 17:12:00,56.6,35.5,29.88,WSW,248,4.0,5.0,45,0.00,,,0.22,Wunderground v.1.15,2013-02-08 22:12:00,
2013-02-08 17:17:00,56.5,34.8,29.89,West,264,4.0,6.0,44,0.00,,,0.22,Wunderground v.1.15,2013-02-08 22:17:00,
2013-02-08 17:23:00,56.3,34.6,29.90,NW,319,3.0,7.0,44,0.00,,,0.22,Wunderground v.1.15,2013-02-08 22:23:00,
2013-02-08 17:29:00,55.9,33.1,29.90,WSW,255,3.0,6.0,42,0.00,,,0.22,Wunderground v.1.15,2013-02-08 22:29:00,
2013-02-08 17:35:00,54.8,32.7,29.91,West,277,3.0,6.0,43,0.00,,,0.22,Wunderground v.1.15,2013-02-08 22:35:00,
2013-02-08 17:41:00,54.0,33.1,29.91,SSE,152,3.0,4.0,45,0.00,,,0.22,Wunderground v.1.15,2013-02-08 22:41:00,
2013-02-08 17:47:00,53.4,33.1,29.91,West,276,3.0,10.0,46,0.00,,,0.22,Wunderground v.1.15,2013-02-08 22:47:00,
2013-02-08 17:53:00,52.8,33.6,29.92,East,81,3.0,8.0,48,0.00,,,0.22,Wunderground v.1.15,2013-02-08 22:53:00,
2013-02-08 17:59:00,52.1,33.0,29.92,NNW,331,3.0,3.0,48,0.00,,,0.22,Wunderground v.1.15,2013-02-08 22:59:00,
2013-02-08 18:05:00,51.4,32.9,29.94,WSW,245,4.0,6.0,49,0.00,,,0.22,Wunderground v.1.15,2013-02-08 23:05:00,
2013-02-08 18:10:00,50.8,31.8,29.94,SSW,204,4.0,7.0,48,0.00,,,0.22,Wunderground v.1.15,2013-02-08 23:10:00,
2013-02-08 18:16:00,50.1,32.2,29.95,North,352,4.0,7.0,50,0.00,,,0.22,Wunderground v.1.15,2013-02-08 23:16:00,
2013-02-08 18:21:00,49.5,31.6,29.95,WSW,239,4.0,8.0,50,0.00,,,0.22,Wunderground v.1.15,2013-02-08 23:21:00,
2013-02-08 18:27:00,48.8,30.5,29.96,NW,326,5.0,8.0,49,0.00,,,0.22,Wunderground v.1.15,2013-02-08 23:27:00,
2013-02-08 18:33:00,48.0,30.2,29.97,NW,321,5.0,7.0,50,0.00,,,0.22,Wunderground v.1.15,2013-02-08 23:33:00,
2013-02-08 18:39:00,47.4,30.2,29.97,WSW,239,4.0,4.0,51,0.00,,,0.22,Wunderground v.1.15,2013-02-08 23:39:00,
2013-02-08 18:45:00,46.9,30.2,29.98,West,261,4.0,6.0,52,0.00,,,0.22,Wunderground v.1.15,2013-02-08 23:45:00,
2013-02-08 18:51:00,46.4,30.6,29.98,WSW,245,4.0,4.0,54,0.00,,,0.22,Wunderground v.1.15,2013-02-08 23:51:00,
2013-02-08 18:56:00,45.9,30.6,29.99,ENE,60,3.0,8.0,55,0.00,,,0.22,Wunderground v.1.15,2013-02-08 23:56:00,
2013-02-08 19:02:00,45.5,30.7,29.99,ENE,67,4.0,8.0,56,0.00,,,0.22,Wunderground v.1.15,2013-02-09 00:02:00,
2013-02-08 19:08:00,45.2,30.9,30.00,NNW,338,3.0,14.0,57,0.00,,,0.22,Wunderground v.1.15,2013-02-09 00:08:00,
2013-02-08 19:14:00,44.9,30.1,30.00,NNW,338,4.0,14.0,56,0.00,,,0.22,Wunderground v.1.15,2013-02-09 00:14:00,
2013-02-08 19:20:00,44.8,30.0,30.01,West,267,5.0,7.0,56,0.00,,,0.22,Wunderground v.1.15,2013-02-09 00:20:00,
2013-02-08 19:26:00,44.6,29.4,30.01,South,183,6.0,9.0,55,0.00,,,0.22,Wunderground v.1.15,2013-02-09 00:26:00,
2013-02-08 19:32:00,44.4,29.2,30.02,West,278,6.0,9.0,55,0.00,,,0.22,Wunderground v.1.15,2013-02-09 00:32:00,
2013-02-08 19:38:00,44.1,28.9,30.02,East,93,5.0,5.0,55,0.00,,,0.22,Wunderground v.1.15,2013-02-09 00:38:00,
2013-02-08 19:44:00,43.8,29.1,30.02,NW,310,4.0,7.0,56,0.00,,,0.22,Wunderground v.1.15,2013-02-09 00:44:00,
2013-02-08 19:50:00,43.7,29.0,30.02,WNW,302,4.0,4.0,56,0.00,,,0.22,Wunderground v.1.15,2013-02-09 00:50:00,
2013-02-08 19:55:00,43.5,29.3,30.03,SW,235,4.0,7.0,57,0.00,,,0.22,Wunderground v.1.15,2013-02-09 00:55:00,
2013-02-08 20:01:00,43.3,29.5,30.03,WNW,287,4.0,7.0,58,0.00,,,0.22,Wunderground v.1.15,2013-02-09 01:01:00,
2013-02-08 20:07:00,43.2,29.4,30.03,WSW,255,4.0,7.0,58,0.00,,,0.22,Wunderground v.1.15,2013-02-09 01:07:00,
2013-02-08 20:13:00,43.0,29.2,30.03,West,274,3.0,7.0,58,0.00,,,0.22,Wunderground v.1.15,2013-02-09 01:13:00,
2013-02-08 20:18:00,42.9,29.5,30.04,WNW,293,3.0,7.0,59,0.00,,,0.22,Wunderground v.1.15,2013-02-09 01:18:00,
2013-02-08 20:24:00,42.7,29.8,30.04,West,266,3.0,7.0,60,0.00,,,0.22,Wunderground v.1.15,2013-02-09 01:24:00,
2013-02-08 20:30:00,42.4,29.9,30.04,NW,308,2.0,7.0,61,0.00,,,0.22,Wunderground v.1.15,2013-02-09 01:30:00,
2013-02-08 20:36:00,42.5,29.6,30.04,WSW,257,3.0,7.0,60,0.00,,,0.22,Wunderground v.1.15,2013-02-09 01:36:00,
2013-02-08 20:42:00,42.4,29.9,30.04,West,269,3.0,7.0,61,0.00,,,0.22,Wunderground v.1.15,2013-02-09 01:42:00,
2013-02-08 20:47:00,42.3,29.8,30.04,WSW,248,3.0,7.0,61,0.00,,,0.22,Wunderground v.1.15,2013-02-09 01:47:00,
2013-02-08 20:53:00,42.2,29.7,30.04,West,272,4.0,10.0,61,0.00,,,0.22,Wunderground v.1.15,2013-02-09 01:53:00,
2013-02-08 20:59:00,42.1,29.6,30.05,North,4,4.0,4.0,61,0.00,,,0.22,Wunderground v.1.15,2013-02-09 01:59:00,
2013-02-08 21:05:00,42.0,29.5,30.05,NNW,345,3.0,7.0,61,0.00,,,0.22,Wunderground v.1.15,2013-02-09 02:05:00,
2013-02-08 21:11:00,41.9,29.0,30.05,WSW,246,4.0,7.0,60,0.00,,,0.22,Wunderground v.1.15,2013-02-09 02:11:00,
2013-02-08 21:17:00,41.9,29.0,30.06,West,267,4.0,12.0,60,0.00,,,0.22,Wunderground v.1.15,2013-02-09 02:17:00,
2013-02-08 21:22:00,41.7,28.8,30.06,NW,323,5.0,7.0,60,0.00,,,0.22,Wunderground v.1.15,2013-02-09 02:22:00,
2013-02-08 21:28:00,41.7,28.8,30.06,NW,316,4.0,8.0,60,0.00,,,0.22,Wunderground v.1.15,2013-02-09 02:28:00,
2013-02-08 21:34:00,41.6,28.3,30.07,WNW,300,4.0,7.0,59,0.00,,,0.22,Wunderground v.1.15,2013-02-09 02:34:00,
2013-02-08 21:40:00,41.6,28.7,30.07,WSW,255,4.0,7.0,60,0.00,,,0.22,Wunderground v.1.15,2013-02-09 02:40:00,
2013-02-08 21:46:00,41.4,28.5,30.07,West,259,3.0,7.0,60,0.00,,,0.22,Wunderground v.1.15,2013-02-09 02:46:00,
2013-02-08 21:52:00,41.3,28.9,30.07,WSW,257,3.0,7.0,61,0.00,,,0.22,Wunderground v.1.15,2013-02-09 02:52:00,
2013-02-08 21:58:00,41.1,28.7,30.08,WNW,284,3.0,7.0,61,0.00,,,0.22,Wunderground v.1.15,2013-02-09 02:58:00,
2013-02-08 22:04:00,40.9,28.9,30.08,NW,322,2.0,7.0,62,0.00,,,0.22,Wunderground v.1.15,2013-02-09 03:04:00,
2013-02-08 22:10:00,40.6,29.0,30.08,East,98,2.0,7.0,63,0.00,,,0.22,Wunderground v.1.15,2013-02-09 03:10:00,
2013-02-08 22:15:00,40.3,29.1,30.08,WNW,293,2.0,7.0,64,0.00,,,0.22,Wunderground v.1.15,2013-02-09 03:15:00,
2013-02-08 22:21:00,40.3,29.1,30.08,WNW,287,2.0,7.0,64,0.00,,,0.22,Wunderground v.1.15,2013-02-09 03:21:00,
2013-02-08 22:26:00,40.5,28.9,30.08,NNW,330,3.0,7.0,63,0.00,,,0.22,Wunderground v.1.15,2013-02-09 03:26:00,
2013-02-08 22:32:00,40.5,28.9,30.08,ENE,58,3.0,7.0,63,0.00,,,0.22,Wunderground v.1.15,2013-02-09 03:32:00,
2013-02-08 22:37:00,40.5,28.9,30.08,WNW,288,3.0,7.0,63,0.00,,,0.22,Wunderground v.1.15,2013-02-09 03:37:00,
2013-02-08 22:42:00,40.4,28.8,30.08,WNW,301,3.0,7.0,63,0.00,,,0.22,Wunderground v.1.15,2013-02-09 03:42:00,
2013-02-08 22:47:00,40.4,28.8,30.08,West,267,3.0,7.0,63,0.00,,,0.22,Wunderground v.1.15,2013-02-09 03:47:00,
2013-02-08 22:53:00,40.4,28.8,30.09,NW,323,5.0,9.0,63,0.00,,,0.22,Wunderground v.1.15,2013-02-09 03:53:00,
2013-02-08 22:58:00,40.4,28.8,30.08,WNW,297,5.0,9.0,63,0.00,,,0.22,Wunderground v.1.15,2013-02-09 03:58:00,
2013-02-08 23:03:00,40.2,28.6,30.08,NNW,336,4.0,7.0,63,0.00,,,0.22,Wunderground v.1.15,2013-02-09 04:03:00,
2013-02-08 23:10:00,40.0,28.4,30.09,West,259,3.0,7.0,63,0.00,,,0.22,Wunderground v.1.15,2013-02-09 04:10:00,
2013-02-08 23:15:00,39.7,28.5,30.08,NNE,25,3.0,7.0,64,0.00,,,0.22,Wunderground v.1.15,2013-02-09 04:15:00,
2013-02-08 23:20:00,39.6,28.0,30.09,NNE,30,2.0,7.0,63,0.00,,,0.22,Wunderground v.1.15,2013-02-09 04:20:00,
2013-02-08 23:26:00,39.4,28.2,30.08,NW,309,2.0,7.0,64,0.00,,,0.22,Wunderground v.1.15,2013-02-09 04:26:00,
2013-02-08 23:32:00,39.2,28.0,30.09,WSW,242,2.0,7.0,64,0.00,,,0.22,Wunderground v.1.15,2013-02-09 04:32:00,
2013-02-08 23:38:00,39.2,27.7,30.09,West,277,3.0,7.0,63,0.00,,,0.22,Wunderground v.1.15,2013-02-09 04:38:00,
2013-02-08 23:44:00,39.3,27.7,30.09,NNW,330,3.0,7.0,63,0.00,,,0.22,Wunderground v.1.15,2013-02-09 04:44:00,
2013-02-08 23:50:00,39.2,27.7,30.09,NW,313,2.0,7.0,63,0.00,,,0.22,Wunderground v.1.15,2013-02-09 04:50:00,
2013-02-08 23:56:00,39.0,27.5,30.09,WNW,298,3.0,7.0,63,0.00,,,0.22,Wunderground v.1.15,2013-02-09 04:56:00,